Location: Arborea
(39.7744°N, 8.5819°E)
Time: 19:12:44
(UTC+00:00)

CZ-2C DEB - Pass Details

Date: 19 August 2022
Orbit: 681 x 927 km, 97.9° (Epoch: 03 October)

Event Time Altitude Azimuth Distance (km) Brightness Sun altitude
Rises 20:59:00 0° 16° (NNE) 3,260 ? -27.1°
Reaches altitude 10° 21:01:17 10° 20° (NNE) 2,364 ? -27.4°
Enters shadow 21:05:10 47° 47° (NE) 1,077 ? -27.9°
